When you browse on this site, cookies collect data to enhance your experience and personalize the content and advertising you see.
Visit our Privacy Policy to learn more. By continuing to use the site, you agree to this use of cookies and data.
  • En España
  • Lista de países
  • Para 7 días
  • Temperatura del agua
  • Mapa Satelital
  • El tiempo en el mapa
  • Informadores
  • user-avatar
    Iniciar sesión

    Tiempo cada hora Krotivka

    Hoy, 19 Marzo, Martes

    Tiempo Temperatura Precipitaciones Viento Presión Humedad
    00:00 +5°C° 0 mm 5 mps 755 mmHg 67%
    01:00 +3°C° 0 mm 5 mps 755 mmHg 70%
    02:00 +4°C° 0 mm 3 mps 755 mmHg 75%
    03:00 +3°C° 0 mm 3 mps 755 mmHg 76%
    04:00 +3°C° 0 mm 3 mps 755 mmHg 78%
    05:00 +3°C° 0 mm 3 mps 755 mmHg 79%
    06:00 +3°C° 0 mm 4 mps 756 mmHg 76%
    07:00 +4°C° 0 mm 4 mps 756 mmHg 72%
    08:00 +5°C° 0 mm 5 mps 756 mmHg 67%
    09:00 +7°C° 0 mm 5 mps 756 mmHg 61%
    10:00 +8°C° 0 mm 5 mps 756 mmHg 54%
    11:00 +10°C° 0 mm 5 mps 756 mmHg 47%
    12:00 +12°C° 0 mm 5 mps 756 mmHg 44%
    13:00 +13°C° 0 mm 4 mps 756 mmHg 41%
    14:00 +16°C° 0 mm 3 mps 756 mmHg 35%
    15:00 +14°C° 0 mm 3 mps 756 mmHg 37%
    16:00 +14°C° 0 mm 3 mps 756 mmHg 39%
    17:00 +15°C° 0 mm 2 mps 756 mmHg 42%
    18:00 +12°C° 0 mm 3 mps 756 mmHg 47%
    19:00 +11°C° 0 mm 3 mps 756 mmHg 53%
    20:00 +9°C° 0 mm 3 mps 756 mmHg 59%
    21:00 +9°C° 0 mm 3 mps 757 mmHg 62%
    22:00 +8°C° 0 mm 3 mps 757 mmHg 66%
    23:00 +7°C° 0 mm 3 mps 757 mmHg 70%

    Mañana, 20 Marzo, Miércoles

    Tiempo Temperatura Precipitaciones Viento Presión Humedad
    00:00 +6°C° 0 mm 2 mps 757 mmHg 71%
    01:00 +6°C° 0 mm 2 mps 757 mmHg 73%
    02:00 +6°C° 0 mm 1 mps 757 mmHg 74%
    03:00 +6°C° 0 mm 1 mps 757 mmHg 75%
    04:00 +6°C° 0 mm 1 mps 757 mmHg 76%
    05:00 +5°C° 0 mm 1 mps 757 mmHg 77%
    06:00 +6°C° 0 mm 1 mps 757 mmHg 73%
    07:00 +7°C° 0 mm 1 mps 758 mmHg 69%
    08:00 +8°C° 0 mm 1 mps 758 mmHg 65%
    09:00 +9°C° 0 mm 1 mps 758 mmHg 59%
    10:00 +10°C° 0 mm 0 mps 758 mmHg 53%
    11:00 +12°C° 0 mm 0 mps 758 mmHg 46%
    12:00 +13°C° 0 mm 1 mps 758 mmHg 44%
    13:00 +14°C° 0 mm 2 mps 758 mmHg 41%
    14:00 +14°C° 0 mm 3 mps 758 mmHg 39%
    15:00 +13°C° 0 mm 4 mps 758 mmHg 46%
    16:00 +13°C° 0 mm 5 mps 758 mmHg 52%
    17:00 +11°C° 0 mm 6 mps 758 mmHg 59%
    18:00 +10°C° 0 mm 6 mps 759 mmHg 62%
    19:00 +8°C° 0 mm 6 mps 759 mmHg 65%
    20:00 +7°C° 0 mm 6 mps 759 mmHg 68%
    21:00 +6°C° 0 mm 5 mps 760 mmHg 69%
    22:00 +6°C° 0 mm 5 mps 760 mmHg 69%
    23:00 +5°C° 0 mm 4 mps 760 mmHg 70%

    Pasado mañana, 21 Marzo, Jueves

    Tiempo Temperatura Precipitaciones Viento Presión Humedad
    00:00 +5°C° 0 mm 4 mps 760 mmHg 71%
    01:00 +5°C° 0 mm 4 mps 760 mmHg 71%
    02:00 +4°C° 0 mm 4 mps 761 mmHg 72%
    03:00 +4°C° 0 mm 3 mps 761 mmHg 72%
    04:00 +3°C° 0 mm 3 mps 761 mmHg 71%
    05:00 +3°C° 0 mm 3 mps 761 mmHg 71%
    06:00 +3°C° 0 mm 3 mps 761 mmHg 67%
    07:00 +4°C° 0 mm 3 mps 761 mmHg 64%
    08:00 +5°C° 0 mm 4 mps 761 mmHg 60%
    09:00 +6°C° 0 mm 4 mps 761 mmHg 54%
    10:00 +7°C° 0 mm 4 mps 761 mmHg 47%
    11:00 +8°C° 0 mm 5 mps 761 mmHg 40%
    12:00 +9°C° 0 mm 5 mps 761 mmHg 39%
    13:00 +9°C° 0 mm 5 mps 760 mmHg 37%
    14:00 +10°C° 0 mm 5 mps 760 mmHg 36%
    15:00 +10°C° 0 mm 5 mps 760 mmHg 38%
    16:00 +10°C° 0 mm 5 mps 759 mmHg 39%
    17:00 +9°C° 0 mm 5 mps 759 mmHg 41%
    18:00 +10°C° 0 mm 4 mps 759 mmHg 46%
    19:00 +8°C° 0 mm 4 mps 759 mmHg 50%
    20:00 +8°C° 0 mm 3 mps 760 mmHg 55%
    21:00 +7°C° 0 mm 3 mps 760 mmHg 60%
    22:00 +7°C° 0 mm 3 mps 760 mmHg 64%
    23:00 +6°C° 0 mm 2 mps 760 mmHg 69%

    22 Marzo, Viernes

    Tiempo Temperatura Precipitaciones Viento Presión Humedad
    00:00 +6°C° 0 mm 2 mps 760 mmHg 72%
    01:00 +5°C° 0 mm 2 mps 760 mmHg 75%
    02:00 +5°C° 0 mm 2 mps 760 mmHg 77%
    03:00 +5°C° 0 mm 2 mps 760 mmHg 79%
    04:00 +4°C° 0 mm 2 mps 760 mmHg 80%
    05:00 +4°C° 0 mm 2 mps 760 mmHg 81%
    06:00 +5°C° 0 mm 2 mps 760 mmHg 78%
    07:00 +5°C° 0 mm 3 mps 760 mmHg 75%
    08:00 +7°C° 0 mm 3 mps 760 mmHg 71%
    09:00 +8°C° 0 mm 3 mps 760 mmHg 67%
    10:00 +7°C° 0 mm 4 mps 760 mmHg 63%
    11:00 +8°C° 0 mm 4 mps 759 mmHg 59%
    12:00 +10°C° 0 mm 5 mps 759 mmHg 55%
    13:00 +12°C° 0 mm 5 mps 758 mmHg 51%
    14:00 +13°C° 0 mm 6 mps 758 mmHg 47%
    15:00 +13°C° 0 mm 5 mps 757 mmHg 53%
    16:00 +13°C° 0 mm 4 mps 757 mmHg 59%
    17:00 +12°C° 0 mm 4 mps 756 mmHg 66%
    18:00 +12°C° 0 mm 4 mps 757 mmHg 71%
    19:00 +11°C° 0 mm 3 mps 757 mmHg 76%
    20:00 +10°C° 0 mm 3 mps 757 mmHg 81%
    21:00 +10°C° 0 mm 3 mps 756 mmHg 83%
    22:00 +8°C° 0 mm 4 mps 756 mmHg 85%
    23:00 +7°C° 0 mm 4 mps 756 mmHg 87%

    23 Marzo, Sábado

    Tiempo Temperatura Precipitaciones Viento Presión Humedad
    00:00 +8°C° 0 mm 4 mps 756 mmHg 84%
    01:00 +8°C° 0 mm 4 mps 756 mmHg 82%
    02:00 +8°C° 0 mm 4 mps 756 mmHg 80%
    03:00 +7°C° 0 mm 4 mps 756 mmHg 82%
    04:00 +6°C° 0 mm 4 mps 756 mmHg 84%
    05:00 +6°C° 0 mm 4 mps 756 mmHg 85%
    06:00 +6°C° 0 mm 5 mps 757 mmHg 77%
    07:00 +6°C° 0 mm 5 mps 757 mmHg 69%
    08:00 +7°C° 0 mm 6 mps 757 mmHg 61%
    09:00 +8°C° 0 mm 6 mps 757 mmHg 52%
    10:00 +9°C° 0 mm 6 mps 758 mmHg 44%
    11:00 +10°C° 0 mm 6 mps 758 mmHg 35%
    12:00 +10°C° 0 mm 6 mps 757 mmHg 34%
    13:00 +11°C° 0 mm 6 mps 757 mmHg 32%
    14:00 +11°C° 0 mm 6 mps 757 mmHg 30%
    15:00 +11°C° 0 mm 6 mps 757 mmHg 31%
    16:00 +10°C° 0 mm 5 mps 757 mmHg 33%
    17:00 +10°C° 0 mm 5 mps 757 mmHg 34%
    18:00 +10°C° 0 mm 4 mps 757 mmHg 38%
    19:00 +9°C° 0 mm 3 mps 757 mmHg 43%
    20:00 +8°C° 0 mm 2 mps 758 mmHg 47%
    21:00 +7°C° 0 mm 2 mps 758 mmHg 49%
    22:00 +8°C° 0 mm 1 mps 758 mmHg 51%
    23:00 +7°C° 0 mm 1 mps 758 mmHg 53%

    24 Marzo, Domingo

    Tiempo Temperatura Precipitaciones Viento Presión Humedad
    00:00 +7°C° 0 mm 1 mps 758 mmHg 54%
    01:00 +7°C° 0 mm 1 mps 758 mmHg 54%
    02:00 +6°C° 0 mm 1 mps 758 mmHg 55%
    03:00 +6°C° 0 mm 1 mps 758 mmHg 55%
    04:00 +6°C° 0 mm 1 mps 758 mmHg 55%
    05:00 +5°C° 0 mm 2 mps 758 mmHg 55%
    06:00 +6°C° 0 mm 2 mps 758 mmHg 53%
    07:00 +7°C° 0 mm 2 mps 758 mmHg 51%
    08:00 +8°C° 0 mm 3 mps 758 mmHg 49%
    09:00 +9°C° 0 mm 3 mps 758 mmHg 50%
    10:00 +11°C° 0 mm 3 mps 758 mmHg 52%
    11:00 +12°C° 0 mm 3 mps 757 mmHg 54%
    12:00 +14°C° 0 mm 2 mps 757 mmHg 51%
    13:00 +15°C° 0 mm 2 mps 757 mmHg 49%
    14:00 +16°C° 0 mm 2 mps 756 mmHg 47%
    15:00 +16°C° 0 mm 2 mps 756 mmHg 47%
    16:00 +16°C° 0 mm 1 mps 756 mmHg 48%
    17:00 +16°C° 0 mm 1 mps 755 mmHg 49%
    18:00 +15°C° 0 mm 1 mps 755 mmHg 52%
    19:00 +13°C° 0 mm 1 mps 755 mmHg 56%
    20:00 +12°C° 0 mm 1 mps 755 mmHg 59%
    21:00 +12°C° 0 mm 1 mps 755 mmHg 62%
    22:00 +10°C° 0 mm 2 mps 755 mmHg 64%
    23:00 +10°C° 0 mm 2 mps 755 mmHg 67%
    Mostrar más